Regional Weather Roundup
Issued by NWS Jackson, KY

Home | Current Version | Previous Version | Graphics & Text | Print | Product List | Glossary On
Versions: 1 2 3 4 5 6 7 8 9 10 11 12 13 14 15 16 17 18 19 20 21 22 23 24 25 26 27 28 29 30 31 32 33 34 35 36 37 38 39 40 41 42 43 44 45 46 47 48 49 50
000
ASUS43 KJKL 262010
RWRJKL

EAST KENTUCKY HOURLY WEATHER ROUNDUP
NATIONAL WEATHER SERVICE JACKSON KY
400 PM EDT FRI MAY 26 2017

NOTE: "FAIR" INDICATES FEW OR NO CLOUDS BELOW 12,000 FEET WITH
NO SIGNIFICANT WEATHER AND/OR OBSTRUCTIONS TO VISIBILITY.

* THESE REPORTS ARE NOT UNDER NWS QUALITY CONTROL AND MAY NOT
  REPORT WEATHER SUCH AS PRECIPITATION AND FOG.

KYZ079-080-083-085-087-088-110-112-115-119-120-262100
...EASTERN KENTUCKY...

CITY           SKY/WX    TMP DP  RH WIND       PRES   REMARKS
JACKSON        SUNNY     75  55  49 VRB5      29.94F
LONDON         SUNNY     78  54  43 SW8       29.95F
SOMERSET*      MOSUNNY   77  57  50 S9        29.93F
MONTICELLO*    MOSUNNY   78  63  59 S14G23    29.93F
WILLIAMSBURG*  PTCLDY    77  59  53 SW12      29.95S
MIDDLESBORO*   SUNNY     79  56  45 S12       29.94F
HARLAN APT*    CLEAR     77  50  38 CALM      29.97F
PIKE CO APT*     N/A     73  55  53 SW5       29.96F
BIG SANDY APT* MOCLDY    74  55  51 W10       29.95F
MOREHEAD APT*  PTCLDY    75  54  46 SW9G16    29.93F
ASHLAND*       MOSUNNY   77  57  50 W7        29.89F
$$

KYZ035-036-041-042-044-050-067-078-099-262100
...CENTRAL KENTUCKY...

CITY           SKY/WX    TMP DP  RH WIND       PRES   REMARKS
MT STERLING*   SUNNY     75  57  53 W8        29.93F
FLEMING/MASON* MOSUNNY   76  58  52 SW9       29.91F
DANVILLE*      PTSUNNY   77  59  53 SW10G20   29.92F
LEXINGTON      SUNNY     78  58  49 S13       29.91F
FRANKFORT      MOSUNNY   77  58  51 S9G17     29.88S
LOUISVILLE     PTSUNNY   81  63  54 S13       29.86F
LEBANON*       MOCLDY    77  63  61 S8        29.90S
GLASGOW*       MOSUNNY   80  64  57 S9        29.88F
BOWLING GREEN  SUNNY     81  64  56 S15G24    29.86F
$$

KYZ091>093-OHZ055-061-077-WVZ005-015-034-035-042-262100
...SOUTHERN OHIO/WEST VIRGINIA...

CITY           SKY/WX    TMP DP  RH WIND       PRES   REMARKS
COVINGTON      MOSUNNY   77  57  50 SW12      29.88S
COLUMBUS       CLOUDY    74  56  53 W15       29.88S
DAYTON         CLOUDY    72  56  57 W6        29.88F
WILMINGTON     SUNNY     73  57  57 SW6       29.88F
HUNTINGTON     MOSUNNY   76  54  46 SW10      29.91F
CHARLESTON     PTSUNNY   73  54  51 W17G23    29.92F
PINEVILLE*     MOSUNNY   74  51  44 MISG      30.01F
BECKLEY        PTSUNNY   68  50  52 W12       29.98F
BLUEFIELD      MOSUNNY   67  48  50 W10G21    30.01F
LOGAN CO APT*    N/A     73  55  53 SW8       29.95F
$$

VAZ002-007-008-TNZ017-027-036-066-071-262100
...SOUTHWEST VIRGINIA/EAST TENNESSEE...

CITY           SKY/WX    TMP DP  RH WIND       PRES   REMARKS
WISE*          MOSUNNY   72  52  49 CALM      30.03F
JONESVILLE*      N/A     77  54  44 SW10      29.99F
ABINGDON*      CLOUDY    74  55  51 W15       30.01F
BRISTOL        MOSUNNY   75  52  44 SW12      29.99F
MORRISTOWN*    CLEAR     75  55  50 SW9G15    29.98F
SEVIERVILLE*   CLEAR     79  55  44 VRB6      29.98F
KNOXVILLE      PTSUNNY   77  58  51 S9        29.97F
LAFOLLETTE*    PTCLDY    77  61  57 S9G15     29.97F
OAK RIDGE      MOSUNNY   79  57  46 W7        29.97F
CROSSVILLE     MOSUNNY   74  60  61 S8        29.99F
NASHVILLE      MOSUNNY   86  57  37 SW17G26   29.88F
$$

...KEY TO REMARKS...
VSB - VISIBILITY IN MILES
WCI - WIND CHILL INDEX
HX  - HEAT INDEX

$$



USA.gov is the U.S. government's official web portal to all federal, state and local government web resources and services.